This demonstration page uses our WeatherBlox Daily Observations layout. Learn more.

39.29038, -76.61219

Hourly Observations for July 21, 2018

Temp ( °F °C ) Dew Point ( °F °C ) Humidity (%) Winds ( mph kmh ) Pressure ( in mb ) Visibility ( mi km ) Precip ( " mm )
1:54 am 01:54 undefined 75 23.9 63 17.2 66 66 undefined N/A 30.05 1018 N/A 0 0
2:54 am 02:54 undefined 75 23.9 65 18.3 71 71 undefined N/A 30.03 1017 N/A 0 0
3:54 am 03:54 undefined 74 23.3 65 18.3 74 74 undefined N/A 30.01 1016 N/A 0 0
4:54 am 04:54 undefined 74 23.3 65 18.3 74 74 undefined N/A 30 1016 N/A 0 0
5:54 am 05:54 undefined 74 23.3 67 19.4 79 79 undefined N/A 30 1016 N/A 0 0
6:54 am 06:54 undefined 74 23.3 68 20 82 82 undefined N/A 29.99 1016 N/A 0 0
7:54 am 07:54 undefined 73 22.8 69 20.6 87 87 undefined N/A 29.99 1016 N/A 0 0
8:54 am 08:54 undefined 74 23.3 68 20 82 82 undefined N/A 29.99 1016 N/A 0 0
9:54 am 09:54 undefined 73 22.8 69 20.6 87 87 undefined N/A 29.99 1016 N/A 0.04 1.016
10:54 am 10:54 undefined 73 22.8 69 20.6 87 87 undefined N/A 29.98 1015 N/A 0.01 0.254
11:54 am 11:54 undefined 73 22.8 69 20.6 87 87 undefined N/A 29.96 1015 N/A 0.06 1.524
12:54 pm 12:54 undefined 70 21.1 66 18.9 87 87 undefined N/A 29.94 1014 N/A 0.12 3.048
1:54 pm 13:54 undefined 69 20.6 66 18.9 90 90 undefined N/A 29.91 1013 N/A 0.21 5.334
2:54 pm 14:54 undefined 70 21.1 67 19.4 90 90 undefined N/A 29.88 1012 N/A 0.16 4.064
3:54 pm 15:54 undefined 70 21.1 67 19.4 90 90 undefined N/A 29.85 1011 N/A 0.13 3.302
4:54 pm 16:54 undefined 70 21.1 68 20 93 93 undefined N/A 29.83 1010 N/A 0.31 7.874
5:54 pm 17:54 undefined 70 21.1 67 19.4 90 90 undefined N/A 29.8 1009 N/A 0.22 5.588
6:54 pm 18:54 undefined 70 21.1 67 19.4 90 90 undefined N/A 29.78 1009 N/A 0.05 1.27
7:54 pm 19:54 undefined 70 21.1 67 19.4 90 90 undefined N/A 29.76 1008 N/A 0.02 0.508
8:54 pm 20:54 undefined 70 21.1 67 19.4 90 90 undefined N/A 29.74 1007 N/A 0.08 2.032
9:54 pm 21:54 undefined 70 21.1 67 19.4 90 90 undefined N/A 29.72 1006 N/A 0.04 1.016
10:54 pm 22:54 undefined 69 20.6 67 19.4 93 93 undefined N/A 29.68 1005 N/A 0.26 6.604
11:54 pm 23:54 undefined 70 21.1 68 20 93 93 undefined N/A 29.64 1004 N/A 0.62 15.748

Powered by AerisWeather